Regional Weather Roundup
Issued by NWS

Home | Current Version | Previous Version | Text Only | Print | Product List | Glossary On
Versions: 1 2 3 4 5 6 7 8 9 10 11 12 13 14 15 16 17 18 19 20 21 22 23 24 25 26 27 28 29 30 31 32 33 34 35 36 37 38 39 40 41 42 43 44 45 46 47 48 49 50
000
ASUS44 KLIX 010311
RWRLA
LOUISIANA WEATHER ROUNDUP
NATIONAL WEATHER SERVICE NEW ORLEANS LA
1000 PM CDT SAT APR 30 2016

NOTE: "FAIR" INDICATES FEW OR NO CLOUDS BELOW 12,000 FEET WITH NO
      SIGNIFICANT WEATHER AND/OR OBSTRUCTIONS TO VISIBILITY.
      SKY/WX - SKY CONDITION AND SIGNIFICANT WEATHER.
      TMP - AIR TEMPERATURE.    DP   - DEWPOINT TEMPERATURE.
      RH  - RELATIVE HUMIDITY.  PRES - PRESSURE.
      HX  - HEAT INDEX.         WCI  - WIND CHILL INDEX.

*  THESE STATIONS ARE NOT NWS OR FAA STATIONS AND ARE NOT UNDER
   NWS QUALITY CONTROL.

LAZ040-048-061>063-065-066-069-010400-
SOUTHEAST LOUISIANA

CITY           SKY/WX    TMP DP  RH WIND       PRES   REMARKS
N.O. AUDUBON     N/A     70  67  88 MISG        N/A
N.O. INTL ARPT PTCLDY    70  66  87 SE7       29.87R
N.O. LAKEFRONT PTCLDY    67  66  97 SE7       29.88R
N.O. DOWNTOWN* FAIR      72  67  84 S9G17     29.88R
RESERVE*       FAIR      71  67  88 S7        29.87R
SLIDELL        PTCLDY    69  67  93 SE3       29.87R
BATON ROUGE    PTCLDY    70  66  87 E6        29.86R
BOOTHVILLE     PTCLDY    72  65  78 SE10      29.88F
BELLE CHASSE   PTCLDY    71  67  87 SE13G22   29.87R
BOGALUSA*      FAIR      68  64  88 CALM      29.90R
GALLIANO*      PTCLDY    73  68  82 SE9       29.88R
NEW ROADS*     MOCLDY    71  68  89 SE7       29.85R
GONZALES*      FAIR      70  69  99 SE3       29.86R
HAMMOND*       CLEAR     68  64  88 SE3       29.87R
HOUMA*         PTCLDY    73  68  84 SE15G25   29.87R
PORT FOURCHON* CLEAR     75  66  73 SE18G26   29.88S

$$

LAZ041-044-053-054-010400-
SOUTHWEST LOUISIANA

CITY           SKY/WX    TMP DP  RH WIND       PRES   REMARKS
LAKE CHARLES   CLOUDY    78  75  90 SE10      29.80R
LAFAYETTE      CLOUDY    75  69  81 SE8       29.83R
PATTERSON      NOT AVBL
SALT POINT       N/A     75  72  90 SE12G22   29.84R
NEW IBERIA     CLOUDY    73  69  87 SE10      29.84R
CHENAULT AIRPK CLOUDY    77  73  88 SE10      29.80R

$$

LAZ027-028-010400-
CENTRAL LOUISIANA

CITY           SKY/WX    TMP DP  RH WIND       PRES   REMARKS
FORT POLK      CLOUDY    76  72  88 S7        29.81R
ALEXANDRIA INT MOCLDY    76  73  91 SE10      29.80R
ALEXANDRIA     CLOUDY    74  71  91 SE6       29.82R

$$

LAZ001-002-010400-
NORTHWEST LOUISIANA

CITY           SKY/WX    TMP DP  RH WIND       PRES   REMARKS
SHREVEPORT     PTCLDY    74  69  85 SE3       29.79R
BARKSDALE AFB  CLEAR     71  71 100 SE5       29.79R
DTN SHREVEPORT CLEAR     75  68  78 SE5       29.79R

$$

LAZ014-016-010400-
NORTHEAST LOUISIANA

CITY           SKY/WX    TMP DP  RH WIND       PRES   REMARKS
MONROE         CLOUDY    74  70  87 VRB5      29.82R
TALLULAH       MOCLDY    73  66  78 SE14      29.85R

$$




USA.gov is the U.S. government's official web portal to all federal, state and local government web resources and services.